Location: Altmatt
(47.1333°N, 8.7000°E)
Time: 08:30:52
(UTC+00:00)

IRIDIUM 103 - Pass Details

Date: 13 July 2020
Orbit: 776 x 779 km, 86.4° (Epoch: 04 August)

Event Time Altitude Azimuth Distance (km) Brightness Sun altitude
Exits shadow 22:34:37 34° 201° (SSW) 1,256 5.0 -20.1°
Maximum altitude 22:36:51 69° 275° (W) 835 4.5 -20.1°
Drops below altitude 10° 22:42:05 10° 359° (N) 2,341 8.0 -20.3°
Sets 22:44:28 0° 2° (N) 3,273 9.0 -20.4°
